www.pogodaiklimat.ru

Погода и климат >> Архив погоды >> Украина >> Кропивницкий


АРХИВ ПОГОДЫ в Кропивницком

Время (UTC), дата Ветер
(напр.,м/с)
 
Видим.   Явления Облачность Т
(С)
Тd
(С)
f
(%)
Тe
(С)
Тes
(С)
Комфортность P
(гПа)
Po
(гПа)
Тmin
(С)
Tmax
(С)
R
(мм)
R24
(мм)
S
(см)
18 17.09 штиль 0 10 км 4/0
[Ci fib]
+13.9 +6.7 62 +14 +14 по сезону 1024.9 1004.3 +19.9
21 17.09 штиль 0 10 км ясно +10.3 +6.9 79 +10 +10 по сезону 1024.9 1004.1
00 18.09 С 1 10 км ясно +8.0 +6.9 93 +7 +7 прохладно 1025.3 1004.3
03 18.09 штиль 0 10 км ясно +7.3 +6.2 93 +6 +6 прохладно 1025.4 1004.3
06 18.09 З 1 20 км 3/0
[Ci fib]
+12.4 +8.4 77 +12 +16 по сезону 1025.4 1004.7 +6.8
09 18.09 СЗ 2 20 км 8/0
[Ci fib]
+19.8 +6.2 41 +21 +29 комфорт 1024.6 1004.4
12 18.09 З 3 20 км 9/0
[Ci fib]
+22.8 +6.4 35 +23 +28 комфорт 1023.3 1003.4
15 18.09 СЗ 3 20 км 9/0
[Ci fib]
+22.8 +8.5 40 +24 +24 комфорт 1022.3 1002.4
18 18.09 штиль 0 10 км 3/0
[Ci fib]
+17.3 +9.9 62 +17 +17 тепло 1022.8 1002.5 +23.2
21 18.09 штиль 0 10 км 3/0
[Ci fib]
+13.2 +9.9 80 +13 +13 по сезону 1023.5 1002.9
00 19.09 штиль 0 10 км ясно +11.9 +8.9 82 +11 +11 по сезону 1023.8 1003.1
03 19.09 штиль 0 10 км ясно +10.5 +8.9 90 +10 +10 по сезону 1024.3 1003.5
06 19.09 СЗ 1 20 км ясно +14.5 +11.3 81 +15 +18 тепло 1024.7 1004.2 +9.6
09 19.09 СЗ 3 20 км ясно +23.3 +10.7 45 +25 +33 комфорт 1023.9 1004.0
12 19.09 СЗ 2 20 км ясно +25.9 +8.3 33 +26 +33 жарко 1022.6 1002.9
15 19.09 З 1 20 км ясно +26.5 +10.7 37 +27 +28 жарко 1021.8 1002.2
18 19.09 З 2 10 км ясно +18.2 +9.9 58 +19 +19 тепло 1022.5 1002.3 +27.7
21 19.09 штиль 0 10 км ясно +15.8 +9.7 67 +16 +16 тепло 1022.9 1002.5
00 20.09 штиль 0 10 км ясно +13.0 +9.0 77 +13 +13 тепло 1023.0 1002.4
03 20.09 штиль 0 10 км ясно +11.8 +9.0 83 +11 +11 по сезону 1023.3 1002.6
06 20.09 штиль 0 20 км ясно +17.6 +11.4 67 +18 +21 тепло 1022.7 1002.5 +11.0
09 20.09 З 3 20 км ясно +25.0 +11.6 43 +26 +34 жарко 1021.8 1002.1
12 20.09 З 4 20 км ясно +27.6 +8.9 31 +28 +32 жарко 1020.4 1000.9
15 20.09 С 2 20 км ясно +27.0 +10.3 35 +28 +28 жарко 1019.7 1000.1
18 20.09 штиль 0 10 км ясно +20.2 +10.7 54 +21 +21 комфорт 1020.4 1000.4 +28.3
21 20.09 СЗ 1 10 км ясно +16.0 +10.3 69 +17 +17 тепло 1020.6 1000.3
00 21.09 штиль 0 10 км ясно +13.8 +10.8 82 +13 +13 тепло 1020.9 1000.4
03 21.09 штиль 0 10 км ясно +12.4 +10.9 91 +12 +12 тепло 1021.3 1000.7
06 21.09 штиль 0 20 км ясно +16.4 +12.0 75 +16 +20 тепло 1021.4 1001.1 +11.4
09 21.09 СЗ 2 20 км ясно +26.6 +12.5 42 +28 +37 жарко 1020.6 1001.0
12 21.09 В 2 20 км ясно +28.4 +9.4 30 +28 +35 жарко 1019.5 1000.0
15 21.09 В 2 20 км ясно +27.5 +10.0 33 +28 +28 жарко 1018.6 999.1
18 21.09 В 4 10 км ясно +20.1 +10.1 53 +22 +22 комфорт 1019.1 999.1 +28.6
21 21.09 ЮВ 3 10 км ясно +18.4 +10.6 60 +19 +19 тепло 1019.0 998.9
00 22.09 ЮВ 3 10 км ясно +16.7 +10.1 65 +17 +17 тепло 1018.6 998.4
03 22.09 ЮВ 2 10 км ясно +14.0 +9.5 74 +14 +14 тепло 1018.6 998.2
06 22.09 ЮВ 3 20 км 3/0
[Ci fib]
+19.3 +11.3 60 +21 +23 комфорт 1017.9 997.9 +12.7
09 22.09 ЮВ 4 20 км 3/0
[Ci fib]
+27.0 +10.3 35 +28 +33 жарко 1016.8 997.3
12 22.09 ЮЗ 5 20 км 3/3 1000 м
[Cu hum]
+29.2 +6.9 25 +28 +31 жарко 1015.1 995.7
15 22.09 ЮЗ 3 20 км 3/0
[Ci fib]
+27.4 +7.3 28 +27 +27 жарко 1013.7 994.3
18 22.09 Ю 4 10 км 5/0
[Ci fib]
+21.8 +8.6 43 +23 +23 комфорт 1014.0 994.2 +29.5
21 22.09 Ю 4 10 км 5/0
[Ac trans Ci fib]
+19.1 +9.3 53 +20 +20 тепло 1013.4 993.4
00 23.09 СЗ 6 10 км 10/4 1000 м
[Cb calv Ac As]
+15.0 +9.0 67 +13 +13 тепло 1015.4 995.1
03 23.09 СЗ 4 10 км слабый ливневой дождь 10/10 180 м
[Cb calv]
+11.1 +10.5 96 +9 +9 по сезону 1016.6 996.0
06 23.09 С 4 20 км {ливн. осадки} 10/10 400 м
[Cb calv]
+10.2 +8.6 90 +7 +7 по сезону 1018.6 997.9 +10.2 2
09 23.09 С 3 20 км 9/4 480 м
[Sc Ac trans]
+12.3 +8.0 75 +11 +13 прохладно 1019.1 998.5
12 23.09 З 5 20 км 8/8 1000 м
[Cu hum]
+16.8 +6.7 51 +16 +17 по сезону 1018.5 998.3
15 23.09 СЗ 3 20 км 4/4 1000 м
[Cu hum]
+16.4 +5.4 48 +16 +16 по сезону 1017.9 997.6
18 23.09 З 2 10 км ясно +12.2 +6.1 66 +11 +11 по сезону 1018.9 998.3 +17.6
21 23.09 ЮВ 2 10 км ясно +8.2 +5.5 83 +6 +6 холодно 1018.5 997.6
00 24.09 Ю 4 10 км 10/0
[Ci fib]
+7.2 +4.9 85 +4 +4 холодно 1017.0 996.1
03 24.09 Ю 5 10 км 10/0
[Ac trans Ci fib]
+8.6 +6.4 86 +5 +5 прохладно 1014.2 993.5
06 24.09 Ю 8 20 км 9/4 1000 м
[Cb calv Ac trans]
+11.8 +8.4 80 +8 +9 по сезону 1012.5 992.0 +6.6
09 24.09 Ю 9 20 км 10/10 840 м
[Cb calv]
+16.0 +7.2 56 +14 +14 по сезону 1009.4 989.3
12 24.09 Ю 7
{18}
4000 м слабый ливневой дождь 10/10 700 м
[Cb calv]
+17.4 +13.9 80 +16 +16 по сезону 1006.7 986.8
15 24.09 СЗ 11 10 км слабый ливневой дождь 10/10 600 м
[Cb calv]
+14.4 +13.7 96 +11 +11 прохладно 1009.3 989.1

 

Местоположение метеостанции Кропивницкий (Кировоградская область, Украина): широта 48.52 долгота 32.20 высота над уровнем моря 171 м.

В архиве по умолчанию представлена погода в Кропивницком за последнюю неделю. Архивные данные за месяц целиком и за предыдущие месяцы, начиная с января 2011 года, Вы можете получить, выбрав интересующий диапазон дат из раскрывающегося списка и нажав кнопку "Ввод!".


*Определитесь, кто Вы:
робот инопланетянин человек

Внимание! Время в таблицах - всемирное. Для получения местного времени необходимо прибавить поправку, которая в Кропивницком равна 2 ч.

Смотрите также архив погоды в соседних городах и на ближайших метеорологических станциях:

Погода в Знаменке (Кировоградская область, Украина) (41 км)
Погода в Бобринце (Кировоградская область, Украина) (50 км)
Погода в Новомиргороде (Кировоградская область, Украина) (51 км)
Погода в Долинской (Кировоградская область, Украина) (61 км)
Погода в Помошной (Кировоградская область, Украина) (67 км)
Погода в Чигирине (Черкасская область, Украина) (71 км)
Погода в Ротмистровке (Черкасская область, Украина) (77 км)
Погода в Кривом Роге (Днепропетровская область, Украина) (93 км)
Погода в Светловодске (Кировоградская область, Украина) (97 км)
Погода в Черкассах (Черкасская область, Украина) (101 км)

Пояснения к столбцам:

Ветер - указаны скорость ветра в м/с - средняя за 10 мин, порывы в срок и между сроками (в фигурных скобках) и направление, откуда дует ветер: С - северный, СВ - северо-восточный, В - восточный, ЮВ - юго-восточный, Ю - южный, ЮЗ - юго-западный, З - западный, СЗ - северо-западный.
Видимость - горизонтальная дальность видимости в метрах или километрах. При видимости от 1 до 10 км при отсутствии осадков обычно наблюдается дымка, при ухудшении видимости до 1 км и менее - туман. В сухую погоду видимость может ухудшаться дымом, пылью или мглою.
Явления - указаны атмосферные явления, наблюдавшиеся в срок или в последний час перед сроком; фигурными скобками обозначены явления, наблюдавшиеся между сроками (за 1-3 часа до срока); квадратными скобками обозначены град или гололедные отложения с указанием их диаметра в мм.
Облачность - указаны через наклонную черту общая и нижняя облачность в баллах и высота нижней границы облаков в метрах; квадратными скобками обозначены формы облаков: Ci - перистые, Cs - перисто-слоистые, Cc - перисто-кучевые, Ac - высококучевые, As - высокослоистые, Sc - слоисто-кучевые, Ns - слоисто-дождевые, Cu - кучевые, Cb - кучево-дождевые. Подробнее классификацию облаков см. в Атласе облаков (PDF).
T - Температура воздуха - температура, измеренная на высоте 2 м над землей.
Td - Температура точки росы - температура, при понижении до которой содержащийся в воздухе водяной пар достигнет насыщения.
f - Относительная влажность воздуха - влажноcть воздуха, измеренная на высоте 2 м над землей.
Te - Эффективная температура - температура, которую ощущает одетый по сезону человек в тени. Характеристика душности погоды. При расчете учитывается влияние влажности воздуха и скорости ветра на теплоощущения человека.
Tes - Эффективная температура на солнце - температура, которую ощущает человек, с поправкой на солнечный нагрев. Характеристика знойности погоды. Зависит от высоты солнца над горизонтом, облачности и скорости ветра. Ночью, в пасмурную погоду, а также при ветре 12 м/с и более поправка равна нулю.
P - Атмосферное давление - приведенное к уровню моря атмосферное давление.
Po - Атмосферное давление - измеренное на уровне метеостанции атмосферное давление.
Tmin - Минимальная температура - минимум температуры воздуха на высоте 2 м над землей.
Tmax - Максимальная температура - максимум температуры воздуха на высоте 2 м над землей.
R - Количество осадков - Количество выпавших осадков за период времени, мм. При наведении курсора мыши на число - период времени, за который выпало указанное количество осадков.
R24 - Количество осадков - Количество выпавших осадков за 24 часа, мм.
S - Снежный покров - Высота снежного покрова, см. При наведении курсора мыши на число - состояние снежного покрова и степень покрытия местности в баллах.